Regional Weather Roundup
Issued by NWS Portland, ME

Current Version | Previous Version | Text Only | Print | Product List | Glossary Off
Versions: 1 2 3 4 5 6 7 8 9 10 11 12 13 14 15 16 17 18 19 20 21 22 23 24 25 26 27 28 29 30 31 32 33 34 35 36 37 38 39 40 41 42 43 44 45 46 47 48 49 50

553
ASUS41 KGYX 201205
RWRGYX
WEATHER ROUNDUP FOR MAINE AND NEW HAMPSHIRE
NATIONAL WEATHER SERVICE GRAY ME
800 AM EDT FRI OCT 20 2017

MEZ002-005-006-010-012-015-018-020-021-024-026-027-029-201300-
MAINE

CITY           SKY/WX    TMP DP  RH WIND       PRES   REMARKS
PORTLAND       FAIR      54  43  66 W5        29.99R
6HR MIN TEMP:  49; 6HR MAX TEMP:  58;

SANFORD        FAIR      48  44  86 SW5       30.01R
BAR HARBOR     FAIR      54  45  71 CALM      29.95R
WISCASSET      FAIR      48  44  86 CALM      29.98R
6HR MIN TEMP:  44; 6HR MAX TEMP:  51;

ROCKLAND       FAIR      54  42  64 W3        29.96R
FRYEBURG       FAIR      54  38  54 W3        30.00R
6HR MIN TEMP:  49; 6HR MAX TEMP:  59;

LEWISTONAUBURN FAIR      55  38  52 NW7       29.99R
AUGUSTA        FAIR      56  35  45 W10G18    29.97R
6HR MIN TEMP:  54; 6HR MAX TEMP:  59;

WATERVILLE     FAIR      54  39  57 W7        29.94R
BANGOR         FAIR      52  42  69 W7        29.95R
6HR MIN TEMP:  45; 6HR MAX TEMP:  56;

GREENVILLE       N/A     49  39  68 NW5       29.91R
6HR MIN TEMP:  48; 6HR MAX TEMP:  56;

MILLINOCKET    FAIR      47  42  83 SW3       29.92R
6HR MIN TEMP:  44; 6HR MAX TEMP:  60;

HOULTON        FAIR      47  41  80 SW3       29.87R
6HR MIN TEMP:  40; 6HR MAX TEMP:  56;

PRESQUE ISLE   FAIR      47  35  63 W6        29.87R
6HR MIN TEMP:  38; 6HR MAX TEMP:  58;

FRENCHVILLE    FAIR      44  30  57 W9        29.83R
6HR MIN TEMP:  43; 6HR MAX TEMP:  48;

CARIBOU        FAIR      48  32  53 W5        29.85R
6HR MIN TEMP:  46; 6HR MAX TEMP:  57;

$$

NHZ002-005-008-009-011-012-014-201300-
NEW HAMPSHIRE

CITY           SKY/WX    TMP DP  RH WIND       PRES   REMARKS
PORTSMOUTH     PTCLDY    54  46  74 W8        30.01R
ROCHESTER      FAIR      53  42  66 VRB3      30.01R
6HR MIN TEMP:  50; 6HR MAX TEMP:  56;

NASHUA         FAIR      51  46  83 W3        30.06R
MANCHESTER     FAIR      56  38  50 NW7       30.03R
6HR MIN TEMP:  52; 6HR MAX TEMP:  58;

CONCORD        FAIR      55  37  50 CALM      30.04R
6HR MIN TEMP:  53; 6HR MAX TEMP:  62;

LACONIA        FAIR      54  37  52 SW5       30.03R
PLYMOUTH       FAIR      50  37  61 NW3       30.03R
BERLIN         FAIR      50  36  58 VRB3      30.01R
6HR MIN TEMP:  45; 6HR MAX TEMP:  60;

WHITEFIELD     FAIR      44  36  73 W5        30.04R
6HR MIN TEMP:  40; 6HR MAX TEMP:  57;

JAFFREY        FAIR      54  40  59 VRB3      30.06R
6HR MIN TEMP:  52; 6HR MAX TEMP:  58;

KEENE          FAIR      44  41  89 CALM      30.06R
LEBANON        FAIR      42  38  85 CALM      30.05R
6HR MIN TEMP:  42; 6HR MAX TEMP:  61;

MT WASHINGTON  FOG       27  27 100 W54         N/A  VSB 1/16WCI   6
6HR MIN TEMP:  27; 6HR MAX TEMP:  35;

$$

VTZ005-007-008-201300-
VERMONT

CITY           SKY/WX    TMP DP  RH WIND       PRES   REMARKS
ST JOHNSBURY     N/A     45  38  76 MISG      30.03R
BURLINGTON     FAIR      55  38  52 W12G18    30.08R
$$

MAZ007-012-024-CTZ003-RIZ002-NYZ038-NYZ072-201300-
SOUTHERN NEW ENGLAND AND NY

CITY           SKY/WX    TMP DP  RH WIND       PRES   REMARKS
BOSTON         FAIR      60  46  59 W10       30.04R
WORCESTER      FAIR      52  41  66 W8        30.06R
NANTUCKET      FAIR      60  53  77 NW9       30.02R
PROVIDENCE     MOCLDY    56  46  69 W7        30.06R
HARTFORD       FAIR      55  40  56 W3        30.10R
ALBANY         FAIR      50  41  71 CALM      30.14R
NEW YORK CITY  MOCLDY    62  45  53 NW9       30.14R
$$

ANZ081-ANZ082-ANZ150-NHZ014-MEZ023>029-201300-
COASTAL MARINE OBSERVATIONS

STATION/POSITION TIME  TEMP    WIND        PRES    WAVE
                       AIR SEA DIR/SP/G            HT/PER
                 (UTC) (F)     (DEG/KT/KT) (MB)    (FT/S)
MOUNT DESERT ROC 1200   56     280/ 10/ 11 1014.1R
MATINICUS ROCK   1100   55     300/ 13/ 14 1013.2R
ISLE OF SHOALS   1100   57     260/ 14/ 15 1014.9R
JEFFREYS LEDGE   1136      57                N/A     3/ 5
GEORGES BANK BUO 1050   60 59              1014.9    3/ 8
$$

.............KEY..............
   WCI - WIND CHILL
   TC  - TEMPERATURE IN CELSIUS
   VSB - VISIBILITY IN MILES
   HX  - HEAT INDEX
   FAIR- INDICATES FEW OR NO CLOUDS BELOW 12,000 FT, WITH NO
         SIGNIFICANT WEATHER AND/OR OBSTRUCTIONS TO VISIBILITY.






USA.gov is the U.S. government's official web portal to all federal, state and local government web resources and services.